Wetbulb
69.52 69.76 70.37 70.13 69.53 69.26 69.19 69.75 70.11 70.01 70.03 69.98 70.13 69.92 69.82 69.47 69.20 69.04 68.97 68.77 68.40 67.97 67.48 66.87 66.74 66.51 66.38 65.90 65.48 66.11 61.55 59.15
68.21 68.53 68.55 68.03 68.26 68.86 68.96 69.00 69.02 69.08 69.51 69.35 68.93 69.26 69.80 69.24 68.36 68.32 68.28 68.05 67.76 67.51 66.79 66.58 66.43 66.17 66.04 65.85 65.53 65.76 58.94 58.49
67.15 67.15 67.13 66.97 67.24 68.78 69.07 69.39 68.80 68.60 68.73 68.68 67.74 67.78 68.10 68.12 67.83 68.17 67.87 67.01 66.93 66.96 66.81 66.51 66.14 66.03 66.18 66.10 66.19 62.28 60.13 60.61
65.97 66.26 66.12 66.18 68.02 67.00 66.23 67.55 67.16 66.71 66.75 66.44 66.35 65.88 66.21 67.88 67.28 67.56 67.65 67.05 67.13 67.02 66.92 66.59 65.98 63.28 62.44 63.43 61.29 62.29 61.18 61.12
65.84 66.01 66.26 65.72 66.08 65.57 65.52 65.75 65.62 65.89 66.93 66.35 65.50 66.73 66.01 66.53 65.62 65.61 64.80 66.75 65.13 64.84 64.58 64.10 64.33 63.49 62.59 62.78 62.01 62.22 61.01 63.15
66.83 67.09 66.69 66.08 65.37 65.61 66.21 65.78 66.28 65.92 63.98 64.42 64.65 66.70 64.05 62.95 63.12 63.06 64.21 65.25 65.69 65.79 65.73 65.94 64.36 65.39 65.52 67.06 67.39 65.21 66.67 67.06
67.26 67.21 67.20 67.74 66.44 66.26 67.29 66.05 65.04 62.45 61.32 61.97 62.42 63.08 63.99 64.66 63.50 65.19 64.23 65.08 64.80 63.26 63.37 64.08 64.75 66.43 64.82 63.46 62.93 64.23 65.32 65.84
66.60 67.32 66.82 67.15 65.90 66.37 64.29 62.82 61.49 60.51 59.26 60.18 61.10 60.79 61.90 61.63 61.47 60.22 59.84 59.15 58.81 57.75 57.43 58.48 58.17 58.83 56.40 56.22 55.53 62.09 65.58 59.93
65.84 65.59 66.06 64.49 62.64 62.82 61.79 61.68 59.75 57.31 56.27 56.62 56.83 58.24 59.06 57.66 55.93 55.91 54.54 53.60 53.74 53.43 53.68 53.64 53.36 52.94 52.13 52.81 55.83 56.08 56.00 57.17
65.68 65.40 62.56 60.97 57.90 57.38 56.76 55.47 55.34 54.41 54.10 54.76 55.44 56.91 55.88 54.15 53.43 52.41 51.99 51.83 51.74 51.63 51.33 50.36 49.56 48.87 49.33 50.08 51.02 53.00 51.75 50.96
61.52 60.72 59.55 57.29 55.80 55.25 54.28 53.78 53.54 53.06 52.64 52.21 52.84 54.88 54.23 52.72 52.05 51.03 51.08 50.75 50.16 49.86 49.07 48.52 46.75 46.59 49.57 47.95 50.72 50.05 49.77 50.52
58.65 57.84 56.29 54.18 53.05 52.49 51.51 51.18 50.67 51.07 50.90 51.10 51.67 52.27 51.92 51.54 51.13 50.46 50.40 49.49 48.56 47.98 47.42 47.96 46.74 46.30 51.13 49.99 50.03 49.52 48.71 48.02
55.62 54.28 53.16 53.97 52.83 50.65 49.42 48.52 48.86 49.23 49.86 50.75 50.85 50.99 50.75 49.96 49.93 49.60 49.17 47.87 47.15 48.30 47.11 46.43 46.71 46.82 47.25 47.63 48.16 48.43 47.25 46.43
54.44 53.83 52.43 53.11 53.43 51.72 50.73 49.76 48.52 48.65 48.80 49.21 49.94 50.18 49.99 50.05 48.97 48.31 47.86 46.79 46.23 46.25 45.93 45.06 44.87 45.77 44.17 44.65 43.18 44.85 45.82 44.92
53.79 53.09 52.70 52.74 53.15 52.31 51.39 49.78 47.32 46.67 46.35 47.19 48.44 49.56 49.42 49.00 48.42 47.98 46.99 46.22 45.26 45.02 44.89 44.44 43.08 44.79 44.72 43.92 40.41 39.50 42.03 44.62
53.55 53.61 53.80 54.54 53.97 51.97 49.22 47.12 45.44 45.23 45.77 46.14 47.02 48.52 48.70 48.96 48.09 47.27 46.30 45.79 45.19 45.60 45.67 43.94 43.31 41.65 43.33 44.09 41.87 41.10 38.96 37.15
54.59 54.56 53.49 52.84 50.88 50.75 48.68 46.71 45.51 45.65 45.82 45.44 45.77 46.60 47.55 47.64 46.79 46.11 45.58 45.50 44.72 44.19 43.18 42.34 42.50 41.21 40.65 40.87 40.38 39.13 38.67 36.33
52.62 53.17 51.44 49.96 49.79 48.98 48.50 45.90 45.71 44.98 44.60 44.60 44.40 45.21 45.61 45.60 45.98 45.23 44.75 44.91 44.37 43.37 42.32 41.38 41.22 41.20 40.83 40.44 39.60 37.69 36.63 34.84
51.36 51.32 50.18 49.68 49.32 48.89 46.63 46.58 46.05 44.86 44.68 44.31 44.30 43.86 43.25 43.43 44.33 44.32 43.74 44.15 43.78 43.36 41.90 40.95 40.08 39.67 39.63 39.81 40.39 39.09 39.07 37.52
51.05 50.46 49.21 48.99 48.49 47.08 46.83 46.79 45.98 45.65 45.55 45.05 44.66 44.42 43.60 43.43 43.69 44.29 43.86 43.94 43.50 42.45 41.30 40.52 39.62 39.40 38.77 39.17 39.04 38.93 38.42 37.41
MSLP
1015.83 1016.06 1016.25 1016.58 1016.87 1017.15 1017.27 1017.49 1017.64 1017.75 1017.84 1017.88 1017.95 1018.06 1018.12 1018.23 1018.30 1018.38 1018.45 1018.56 1018.61 1018.65 1018.70 1018.63 1018.52 1018.52 1018.40 1018.17 1018.16 1018.66 1018.77 1018.77
1015.86 1016.19 1016.41 1016.65 1016.94 1017.08 1017.30 1017.47 1017.69 1017.82 1017.94 1018.07 1018.14 1018.21 1018.35 1018.48 1018.52 1018.57 1018.68 1018.75 1018.74 1018.72 1018.72 1018.71 1018.72 1018.67 1018.50 1018.38 1018.18 1018.29 1018.62 1018.55
1015.97 1016.10 1016.37 1016.67 1016.87 1017.05 1017.24 1017.44 1017.68 1017.83 1017.98 1018.12 1018.26 1018.34 1018.41 1018.48 1018.49 1018.53 1018.60 1018.66 1018.59 1018.60 1018.71 1018.84 1018.77 1018.60 1018.53 1018.44 1018.42 1018.19 1018.00 1018.26
1016.17 1016.11 1016.21 1016.59 1016.76 1017.07 1017.25 1017.36 1017.62 1017.87 1018.10 1018.33 1018.35 1018.33 1018.42 1018.35 1018.56 1018.65 1018.77 1018.75 1018.96 1019.13 1019.33 1019.23 1019.14 1019.21 1019.07 1018.86 1018.68 1018.32 1018.10 1018.26
1016.01 1016.12 1016.37 1016.61 1016.62 1017.10 1017.41 1017.57 1017.86 1018.20 1018.26 1018.24 1018.23 1018.30 1018.54 1018.59 1018.80 1018.91 1018.97 1018.97 1019.08 1019.05 1019.03 1018.97 1018.92 1018.90 1018.89 1018.72 1018.48 1018.37 1018.47 1018.45
1015.59 1015.74 1016.18 1016.54 1016.75 1017.10 1017.32 1017.63 1017.93 1018.26 1018.44 1018.53 1018.32 1018.42 1018.46 1018.53 1018.70 1018.85 1018.82 1018.75 1018.94 1018.95 1019.01 1018.74 1018.89 1018.63 1018.68 1018.57 1018.31 1018.50 1018.58 1019.07
1015.35 1015.63 1016.08 1016.19 1016.46 1016.91 1017.19 1017.56 1017.93 1018.31 1018.45 1018.27 1018.31 1018.60 1018.47 1018.68 1018.72 1018.89 1019.04 1019.07 1019.17 1019.13 1019.15 1019.06 1018.95 1018.89 1018.99 1019.04 1018.95 1018.90 1019.19 1019.77
1015.10 1015.48 1015.70 1015.91 1016.37 1016.59 1017.22 1017.69 1018.26 1018.50 1018.36 1018.48 1018.58 1018.76 1018.90 1019.08 1019.22 1019.38 1019.59 1019.70 1019.71 1019.70 1019.77 1019.81 1019.82 1019.76 1019.85 1019.65 1019.51 1019.45 1019.67 1020.34
1015.03 1015.44 1015.61 1016.07 1016.67 1016.90 1017.38 1017.79 1018.24 1018.57 1018.72 1018.82 1018.85 1018.95 1019.18 1019.45 1019.72 1019.92 1020.14 1020.17 1020.17 1020.17 1020.11 1020.08 1020.18 1020.28 1020.42 1020.25 1020.07 1020.27 1020.56 1020.69
1015.20 1015.62 1016.02 1016.48 1017.04 1017.42 1017.92 1018.34 1018.65 1018.86 1018.91 1019.07 1019.18 1019.27 1019.51 1019.80 1020.05 1020.31 1020.50 1020.35 1020.15 1020.13 1020.30 1020.33 1020.43 1020.49 1020.76 1021.00 1021.00 1020.98 1021.44 1021.69
1015.65 1015.99 1016.33 1016.87 1017.51 1017.94 1018.40 1018.76 1018.95 1019.11 1019.28 1019.28 1019.48 1019.52 1019.60 1019.71 1020.13 1020.42 1020.31 1020.33 1020.41 1020.57 1020.79 1020.85 1021.00 1021.02 1021.10 1021.50 1021.65 1021.93 1022.16 1022.35
1015.97 1016.41 1016.84 1017.16 1017.83 1018.40 1018.80 1019.04 1019.38 1019.46 1019.69 1019.75 1019.74 1019.97 1020.02 1020.12 1020.40 1020.66 1020.69 1020.82 1021.09 1021.17 1021.31 1021.37 1021.49 1021.51 1021.58 1022.11 1022.49 1022.73 1022.94 1023.15
1016.23 1016.68 1017.25 1017.26 1017.96 1018.72 1019.22 1019.66 1019.94 1020.11 1020.12 1020.28 1020.33 1020.37 1020.58 1020.69 1020.91 1021.16 1021.28 1021.57 1021.75 1021.70 1021.85 1021.95 1021.91 1021.95 1022.11 1023.10 1023.47 1023.53 1023.70 1023.88
1016.18 1016.59 1017.03 1017.25 1017.76 1018.39 1018.89 1019.60 1020.10 1020.34 1020.55 1020.75 1020.89 1020.88 1021.08 1021.25 1021.45 1021.77 1021.91 1022.17 1022.16 1022.18 1022.15 1022.50 1022.62 1022.48 1022.74 1023.02 1023.94 1024.37 1024.51 1024.64
1015.95 1016.52 1017.03 1017.31 1017.76 1018.39 1019.00 1019.70 1020.36 1020.76 1021.00 1021.21 1021.46 1021.38 1021.49 1021.78 1021.94 1022.09 1022.37 1022.50 1022.66 1022.62 1022.51 1022.68 1023.16 1023.21 1022.95 1023.06 1024.05 1024.53 1024.80 1025.06
1015.65 1016.38 1016.84 1017.33 1017.62 1018.09 1018.50 1019.12 1020.20 1020.85 1021.13 1021.49 1021.77 1021.77 1021.97 1022.08 1022.30 1022.47 1022.75 1022.88 1022.92 1023.07 1023.04 1023.19 1023.36 1023.69 1023.80 1024.12 1024.27 1024.60 1025.16 1025.70
1015.26 1016.06 1016.57 1016.97 1017.40 1017.75 1018.40 1019.15 1019.98 1020.88 1021.27 1021.66 1022.16 1022.26 1022.35 1022.56 1022.62 1022.86 1023.13 1023.29 1023.47 1023.64 1023.89 1023.89 1024.02 1024.02 1024.28 1024.74 1025.03 1025.39 1025.65 1026.12
1014.80 1015.54 1016.32 1016.80 1017.20 1017.61 1018.11 1018.89 1019.80 1020.80 1021.32 1021.82 1022.33 1022.64 1022.84 1023.04 1023.01 1023.23 1023.47 1023.71 1023.94 1024.23 1024.35 1024.43 1024.69 1024.84 1025.15 1025.32 1025.57 1026.04 1026.75 1027.15
1014.43 1015.08 1016.13 1016.66 1017.09 1017.36 1017.89 1018.62 1019.33 1020.35 1020.91 1021.62 1022.37 1022.77 1023.15 1023.43 1023.44 1023.58 1023.84 1024.11 1024.26 1024.49 1024.93 1025.27 1025.47 1025.63 1025.98 1026.37 1026.53 1026.75 1027.03 1027.35
1014.07 1015.01 1015.79 1016.45 1017.08 1017.59 1018.05 1018.44 1019.28 1020.10 1020.72 1021.41 1022.28 1022.66 1023.09 1023.35 1023.62 1023.92 1024.00 1024.30 1024.79 1025.04 1025.40 1025.81 1026.14 1026.42 1026.44 1026.88 1027.11 1027.41 1027.55 1027.58
Wind_Speed
9 9 12 13 13 11 11 10 10 9 8 8 8 7 7 7 8 8 8 7 7 5 4 4 5 8 11 12 10 8 3 4
10 8 8 7 7 11 11 11 10 9 9 8 8 8 7 7 8 8 7 7 6 5 5 6 6 8 10 11 12 10 2 4
9 10 9 8 7 8 9 10 9 8 7 8 6 4 5 7 7 8 9 9 9 9 8 7 6 8 10 10 10 4 5 3
9 8 9 7 6 5 5 6 4 4 3 2 3 3 3 5 5 7 6 6 4 5 7 7 7 4 4 8 4 5 4 2
9 9 7 7 5 4 2 1 2 2 1 1 5 4 2 2 1 1 1 3 2 3 3 3 5 4 4 4 4 3 3 3
12 10 9 7 4 4 4 3 3 3 4 3 4 3 1 3 2 2 2 2 2 3 2 4 4 5 3 4 6 3 7 7
12 9 8 6 6 4 4 4 4 4 3 5 4 5 4 4 4 5 4 4 3 4 4 5 6 7 8 7 7 6 6 8
11 10 7 6 5 7 6 6 5 3 4 5 6 4 4 4 4 5 5 4 3 4 4 4 5 5 6 7 7 9 14 12
10 9 8 10 8 8 6 6 5 4 5 6 6 6 6 5 4 5 4 3 3 3 3 4 4 4 6 5 7 12 11 13
10 10 10 10 8 7 6 5 4 4 4 4 6 6 6 5 5 4 3 2 3 4 4 4 4 5 4 5 6 10 12 12
12 12 12 12 9 7 6 6 5 4 4 4 6 6 6 6 5 4 4 4 5 4 5 4 4 4 5 5 8 8 9 9
11 8 10 11 8 7 5 5 4 4 4 5 6 5 6 6 6 5 5 5 5 4 6 5 3 3 9 9 8 8 8 9
10 11 7 10 6 5 4 4 3 4 4 6 6 6 6 6 5 5 5 5 4 4 2 6 7 4 6 8 8 8 9 7
9 9 7 6 6 3 4 5 3 4 4 5 5 6 6 6 6 5 6 4 6 6 4 2 4 5 3 2 3 2 6 7
11 9 7 6 7 6 7 7 4 4 3 4 4 6 6 6 6 6 6 4 4 4 5 5 4 6 9 4 3 2 1 2
10 10 10 8 10 10 14 8 8 3 3 4 4 6 6 6 6 6 6 4 6 5 5 4 3 4 5 8 9 3 3 2
11 11 10 9 9 12 9 9 6 5 5 8 6 5 6 6 6 7 6 5 6 6 6 7 5 5 4 2 5 6 6 4
13 13 11 8 10 10 11 13 13 9 7 7 5 4 4 5 6 6 6 6 7 6 7 9 7 8 7 8 6 4 3 4
11 14 12 10 8 9 12 14 14 13 11 8 8 5 3 5 5 6 5 6 7 8 8 8 6 7 7 7 6 7 3 2
14 14 12 10 8 8 11 14 9 9 9 9 6 6 5 5 6 6 7 9 8 7 5 6 6 7 9 7 6 6 5 4
Wind_Direction
132 131 129 128 131 134 133 133 137 137 135 131 123 120 123 131 132 136 140 148 153 167 197 238 284 312 320 324 334 7 359 326
139 136 134 136 141 143 144 146 148 147 143 141 140 146 157 164 160 162 166 173 182 203 236 262 292 314 311 308 317 328 82 296
150 148 150 153 153 161 158 158 159 161 159 160 157 179 185 186 187 185 186 193 203 216 232 253 272 278 282 291 300 300 314 339
164 162 163 156 160 161 166 172 162 170 167 176 210 227 210 207 204 204 213 231 296 321 344 321 315 316 306 322 311 286 286 289
175 170 160 162 161 155 158 148 119 80 151 261 209 232 241 259 246 273 226 278 296 307 294 292 284 270 295 286 276 279 306 343
172 168 160 173 152 168 165 154 146 118 90 129 89 51 138 227 220 159 299 268 290 273 289 294 269 275 270 333 5 359 34 48
170 161 155 174 165 166 151 141 122 124 142 73 74 74 53 68 50 82 61 45 47 43 32 24 27 30 33 34 29 21 57 83
158 153 144 144 128 132 117 111 116 114 73 71 70 81 86 71 71 67 62 47 30 55 47 39 45 43 34 21 18 55 89 94
153 135 127 109 100 103 105 113 100 90 85 69 72 74 84 94 83 74 67 56 75 65 56 66 60 44 51 30 53 74 72 74
131 127 117 104 100 99 97 85 91 89 77 74 64 86 92 85 88 81 90 90 67 61 40 43 44 40 47 41 65 78 75 71
123 127 124 114 99 98 97 96 88 82 78 71 59 70 74 89 82 67 54 51 48 48 44 56 35 28 52 59 78 72 71 74
121 118 120 113 106 99 81 85 75 74 69 65 68 65 68 83 78 67 54 57 46 56 68 38 48 48 93 79 81 82 75 68
132 131 142 132 122 115 92 107 96 74 73 74 67 74 66 80 78 74 62 60 50 50 78 53 33 24 104 86 76 77 73 66
137 141 145 132 130 120 123 134 102 104 95 77 76 79 80 84 89 80 74 71 52 52 63 75 52 18 116 105 129 132 75 67
154 154 156 147 132 126 112 102 76 92 86 83 69 81 81 89 87 92 84 75 72 62 60 72 108 45 51 115 118 156 88 55
151 163 167 173 156 146 154 147 144 140 135 113 95 87 84 90 91 88 86 80 72 65 52 60 83 87 71 53 60 75 120 69
165 165 169 168 163 157 152 138 121 128 123 112 106 87 87 92 95 90 88 77 73 76 64 64 55 75 60 99 61 51 47 76
157 165 176 168 164 159 154 147 144 143 138 127 122 106 94 92 93 97 92 86 81 77 73 69 69 71 67 65 69 82 39 66
163 165 180 181 170 161 152 151 148 150 144 139 136 126 113 118 106 103 93 95 93 86 75 71 73 84 83 82 82 79 80 90
167 176 180 181 175 162 158 153 150 151 145 141 137 133 138 134 112 109 106 103 94 88 87 87 83 82 88 82 77 67 63 60